Location: U-46 Planetarium
(42.0300°N, 88.2740°W)
Time: 16:57:59
(UTC-05:00)

Cosmos 1553 Rocket - Pass Details

Date: 16 December 2017
Orbit: 942 x 1007 km, 82.9° (Epoch: 24 April)

Event Time Altitude Azimuth Distance (km) Brightness Sun altitude
Rises 18:41:52 0° 181° (S) 3,719 7.2 -24.9°
Reaches altitude 10° 18:44:24 10° 180° (S) 2,775 6.5 -25.4°
Maximum altitude 18:50:47 77° 95° (E) 1,034 3.9 -26.5°
Enters shadow 18:53:05 42° 18° (NNE) 1,396 4.6 -27.0°
